Theta_e
352 355 353 356 352 348 351 352 347 350 349 346 344 347 345 343 346 341 341 344 341 344 343 333 332 330 330 331 331 331 331 331 332 333 335 335 334 334 333 333 334 333 329 331 333 334 333 332 329
352 356 358 350 351 350 351 350 351 348 347 348 347 342 345 344 341 342 344 344 341 342 343 335 333 330 330 330 330 331 331 333 334 336 335 335 335 333 332 332 333 332 331 330 332 333 333 328 329
356 357 357 349 350 349 350 351 348 348 347 345 345 345 345 345 339 340 343 344 340 341 337 333 333 332 330 330 330 334 335 335 335 334 334 335 334 333 332 332 332 332 333 332 332 331 330 330 329
355 356 355 352 354 349 353 349 347 345 346 347 346 346 344 338 340 342 342 344 340 337 333 333 332 332 331 331 333 334 335 335 335 333 332 332 334 335 335 335 334 334 334 334 334 333 332 332 331
353 348 350 355 352 348 351 350 345 347 348 347 346 347 347 348 345 343 342 343 341 334 333 333 331 331 331 333 334 336 335 334 333 332 332 331 330 330 331 332 332 332 333 334 334 334 334 333 332
344 348 351 353 351 351 350 349 348 348 348 346 347 347 347 349 344 341 340 342 341 336 333 333 332 333 333 335 337 338 337 335 334 333 332 332 331 331 331 331 332 332 332 333 333 333 333 334 333
350 352 351 350 351 352 351 347 348 348 347 347 347 346 349 348 340 339 340 341 341 340 337 334 335 336 337 339 339 337 336 335 334 333 333 333 333 333 333 332 331 332 335 334 334 333 333 333 333
349 348 348 351 353 352 347 347 348 347 347 346 345 346 347 348 344 340 340 340 341 341 340 340 339 339 339 340 339 338 336 335 334 335 336 336 336 336 336 337 336 336 334 335 337 336 335 334 334
346 345 348 348 347 348 346 346 346 346 346 347 345 343 345 348 347 346 341 340 339 339 339 338 338 338 337 337 336 336 336 336 335 333 333 332 333 334 334 336 334 334 336 335 336 337 337 335 331
348 346 349 345 343 347 348 346 346 345 345 344 346 345 347 347 348 347 340 337 337 336 336 335 335 334 334 332 331 331 332 333 333 332 337 333 339 340 342 344 341 330 328 330 333 332 333 336 335
347 348 350 346 346 346 348 347 347 345 344 344 346 346 348 348 349 346 340 336 333 333 333 334 333 333 331 331 332 330 331 334 344 343 343 345 344 344 344 345 346 344 342 343 332 339 341 330 331
346 346 347 348 346 348 347 344 346 345 345 343 345 345 347 348 348 346 341 339 335 337 334 335 335 335 334 331 332 335 337 343 339 344 346 345 344 345 344 345 346 346 346 345 346 346 345 346 341
345 345 345 347 341 342 348 347 347 346 345 343 344 346 346 347 347 346 344 343 341 344 343 343 340 344 337 339 339 341 344 343 341 343 345 342 344 345 346 346 348 347 346 345 344 343 347 345 345
345 346 348 348 348 347 347 347 346 346 344 342 343 346 346 346 346 346 345 345 344 346 346 346 345 346 346 347 346 346 346 347 346 344 344 344 345 347 348 347 347 348 345 346 344 344 342 345 345
343 345 347 344 349 346 345 345 346 345 344 343 341 345 345 345 345 346 344 345 344 345 346 346 344 344 346 345 346 347 347 346 347 346 345 346 346 347 346 347 347 347 345 345 345 345 344 343 343
344 344 347 346 346 346 343 347 343 344 343 343 342 341 342 345 345 345 343 343 344 345 345 344 344 343 344 346 344 346 345 344 344 346 347 347 347 349 348 348 349 347 346 344 344 345 343 342 342
335 341 345 349 347 346 343 344 342 343 343 342 342 342 343 341 344 342 342 342 342 345 344 343 343 343 344 344 344 343 345 344 344 345 347 347 348 349 350 348 347 346 346 347 348 346 343 343 342
337 339 338 344 348 346 347 347 344 343 343 342 342 342 343 342 342 341 341 342 342 344 343 342 342 343 343 344 344 343 344 344 345 348 348 347 349 349 350 348 349 344 342 343 345 345 346 345 342
330 332 335 339 346 347 347 345 347 343 343 342 341 342 343 342 342 342 342 342 342 344 343 342 342 342 341 344 339 338 341 346 347 348 349 349 349 350 350 349 350 344 341 345 346 346 345 342 343
325 329 335 339 348 346 347 346 343 344 342 342 341 340 341 342 342 342 341 342 343 343 343 342 342 342 342 337 341 345 347 347 347 348 349 350 348 350 347 347 346 345 340 341 341 342 343 346 348
323 332 332 341 349 344 345 344 345 344 345 343 340 340 340 341 341 341 340 341 343 342 342 341 342 342 343 345 342 346 349 348 348 349 343 345 347 347 349 349 346 344 344 344 347 347 346 347 346
321 325 332 351 349 350 342 342 341 345 346 346 344 339 340 339 340 340 340 341 342 341 341 341 341 342 343 346 346 342 346 348 349 351 351 348 339 346 349 348 350 345 343 344 346 345 344 345 345
321 325 330 339 330 333 342 340 336 344 346 347 347 344 340 340 340 340 340 340 340 341 340 341 341 343 343 346 345 340 347 348 349 345 346 344 346 348 348 350 348 345 348 344 344 345 344 344 344
322 323 322 330 329 331 333 334 335 342 347 345 346 347 342 341 341 342 341 341 340 340 340 340 341 342 344 344 341 343 347 347 349 349 348 349 349 348 350 352 342 343 343 342 340 342 341 343 342
319 317 319 324 333 334 332 335 333 333 336 343 346 347 346 341 341 342 342 341 340 340 340 340 341 342 343 342 341 339 345 346 346 346 349 349 350 350 352 353 348 338 337 340 339 333 330 333 336
322 317 318 327 329 326 332 338 334 336 336 340 345 348 347 343 342 343 343 342 341 341 340 340 340 344 343 340 339 339 340 341 342 345 351 352 352 350 344 352 352 348 334 334 334 332 334 329 331
321 320 318 318 321 327 329 334 336 339 340 342 346 345 344 344 343 343 343 343 342 341 342 341 340 344 346 342 342 342 342 342 342 342 347 350 352 352 349 350 350 346 345 336 333 337 337 335 329
322 317 319 314 322 337 336 338 339 341 342 341 344 345 344 345 346 344 343 343 343 342 343 343 341 344 347 346 343 342 341 342 342 342 344 345 349 349 351 351 347 346 348 340 329 330 337 337 331
321 322 316 314 317 321 323 334 333 340 338 340 340 346 345 345 345 345 344 343 343 343 344 344 343 344 347 348 346 345 343 342 342 343 343 345 348 351 351 350 347 342 339 345 331 329 339 340 330
321 321 316 317 320 316 323 322 335 336 336 339 341 341 346 345 345 345 346 344 343 344 344 345 345 345 346 347 347 346 346 345 343 343 343 346 350 349 351 351 345 337 338 339 338 333 339 340 339
Wind_Speed
5 5 2 3 2 3 2 4 2 6 3 7 15 4 6 4 1 3 25 23 22 25 25 26 25 26 25 24 23 22 20 19 19 18 18 18 19 20 19 18 18 18 19 19 19 17 14 12 13
3 2 1 1 3 4 3 5 6 4 6 9 7 14 5 3 7 23 26 26 22 26 25 26 26 26 25 23 21 20 19 18 18 18 17 17 18 19 17 17 17 17 17 17 16 14 12 11 12
2 1 3 2 3 3 2 0 8 11 21 10 5 9 4 5 19 31 24 28 25 26 26 26 25 25 24 21 20 19 18 18 19 18 16 16 16 16 15 14 14 14 15 14 14 13 11 10 11
1 0 1 3 2 3 6 7 10 9 6 4 16 7 9 20 23 19 27 27 24 25 26 25 25 25 23 20 19 17 18 18 18 17 16 15 15 14 13 12 12 12 12 12 11 11 9 8 8
2 2 4 3 3 3 9 14 11 7 7 9 9 6 12 14 19 24 27 26 25 26 25 25 24 22 21 19 17 15 16 17 16 15 14 13 13 12 11 10 10 10 10 10 10 10 9 8 7
6 3 4 3 6 4 6 15 18 6 15 15 16 13 8 14 22 23 23 24 23 25 24 23 22 21 19 16 15 14 15 15 14 13 12 10 10 9 9 8 8 8 8 8 8 7 9 9 8
3 1 2 2 4 4 6 20 11 14 16 9 24 5 10 25 25 27 26 25 23 21 23 22 21 19 17 15 14 14 13 13 12 11 9 8 7 7 6 7 7 6 6 6 6 6 7 9 10
5 2 2 3 2 3 9 13 17 23 11 25 20 5 9 29 26 26 24 25 24 23 21 21 20 19 17 16 14 13 12 11 10 8 7 6 5 5 6 5 5 5 5 6 5 5 6 7 9
3 4 4 4 1 4 4 6 20 7 27 13 13 19 29 30 27 26 24 26 24 23 21 19 18 17 15 14 13 12 11 10 9 8 7 7 7 6 7 4 3 3 4 5 5 5 7 7 8
2 4 3 1 5 6 5 14 10 9 24 8 15 24 31 31 30 27 25 25 24 23 21 19 17 16 14 13 12 11 11 10 9 9 8 9 7 6 6 3 2 3 3 4 4 5 6 7 9
6 5 5 4 3 8 10 15 6 17 10 20 33 35 35 33 31 26 23 22 21 20 21 19 17 15 14 13 13 12 12 12 12 11 10 9 8 5 3 1 2 1 3 3 6 6 5 7 8
3 10 3 12 10 11 6 3 3 20 9 29 32 39 37 37 35 29 25 23 24 21 19 18 17 15 14 13 13 14 13 10 10 8 8 7 5 3 2 1 2 2 3 5 7 6 7 5 8
2 5 7 11 24 15 13 19 9 16 11 28 34 37 38 37 35 30 25 24 25 23 22 21 20 16 15 16 15 14 11 10 9 5 6 7 6 3 4 5 6 7 8 7 8 10 8 6 10
13 14 12 11 22 11 14 8 16 17 27 29 36 40 37 39 36 31 28 27 26 23 21 20 18 19 15 16 13 11 10 7 5 5 5 5 4 4 7 7 9 10 12 12 10 10 9 7 8
11 7 8 9 11 3 18 3 4 23 34 33 31 38 36 35 35 32 29 27 25 23 21 19 17 18 16 15 12 11 9 7 6 5 5 4 3 6 9 10 12 12 13 13 16 16 14 12 9
4 3 3 8 9 10 5 4 3 25 28 28 32 35 33 37 33 35 28 25 25 25 23 18 18 16 16 15 12 10 10 9 4 5 6 4 4 5 6 9 11 12 14 15 16 13 10 13 10
3 2 4 2 10 6 3 3 8 24 27 26 29 34 28 29 37 34 33 28 26 25 22 18 19 17 17 16 13 13 12 10 9 6 5 5 4 5 4 6 9 12 13 11 9 9 10 10 9
4 5 5 6 7 5 6 7 6 23 30 28 28 34 30 30 33 31 31 32 26 26 24 19 18 15 16 16 15 16 21 15 12 9 7 9 8 8 8 7 10 10 9 2 5 10 11 10 7
5 7 10 5 7 6 11 4 10 17 27 27 27 31 34 35 34 31 31 35 30 30 27 23 21 16 16 20 19 19 20 17 15 11 9 6 8 9 10 8 8 8 7 4 6 8 7 6 6
8 8 8 7 8 6 6 6 5 15 26 37 33 32 35 39 36 33 31 37 35 31 29 26 23 20 18 19 20 19 18 15 14 11 11 14 11 8 9 7 7 4 5 4 6 5 5 4 3
5 5 5 4 5 4 4 4 6 9 10 23 30 36 37 40 38 35 34 38 38 35 31 29 28 24 20 17 20 22 19 18 16 12 9 8 11 8 7 5 5 1 3 3 3 3 1 2 2
5 6 3 13 5 4 7 4 6 7 10 13 24 32 39 32 37 35 38 38 40 36 34 32 28 26 21 20 19 22 21 19 14 11 12 9 6 7 5 4 4 1 2 2 1 1 2 2 3
9 5 3 5 4 4 2 2 6 8 9 14 22 31 41 40 35 36 41 41 38 37 36 33 29 25 21 22 19 21 23 18 10 7 3 4 5 5 3 3 2 2 2 1 1 2 1 2 2
3 3 6 4 2 3 2 4 6 5 14 12 18 31 38 42 35 36 44 41 40 39 39 35 30 25 23 23 21 23 24 19 15 12 9 8 7 6 3 2 2 3 1 1 1 1 2 3 3
6 7 4 5 5 4 1 3 8 4 8 13 21 33 40 41 39 38 44 45 44 43 42 39 32 27 24 25 25 24 26 21 17 12 7 8 5 4 3 2 3 1 3 3 4 4 5 5 6
4 7 5 3 1 5 3 4 5 6 12 21 25 41 39 42 41 39 43 45 46 44 44 42 37 30 27 27 26 24 23 21 18 15 13 8 6 2 2 2 1 3 4 5 5 4 3 4 5
4 3 4 7 3 3 3 6 8 5 11 5 15 23 31 42 44 42 40 43 46 46 44 44 41 35 30 29 27 26 25 23 19 16 16 13 9 7 2 3 4 5 7 7 6 6 5 4 5
2 5 3 3 2 1 4 4 4 5 2 6 5 18 28 40 42 44 44 44 45 47 44 43 43 38 34 29 28 26 25 25 24 20 18 16 13 12 10 7 8 6 8 10 9 10 9 7 6
6 4 6 5 4 6 2 6 7 9 9 3 7 17 26 36 42 46 46 44 45 45 45 44 45 42 39 33 30 28 27 26 26 26 23 20 16 16 13 11 10 7 19 14 12 13 13 10 7
6 4 3 5 4 1 4 6 4 7 7 4 3 4 15 32 39 44 43 45 42 45 45 43 43 43 42 38 34 30 28 28 29 27 25 27 24 21 17 17 12 8 20 18 14 16 14 11 11
Wind_Direction
127 108 56 305 22 62 44 22 2 117 133 151 156 145 153 69 162 178 144 149 151 147 144 147 145 142 139 138 135 132 131 131 131 132 132 132 137 136 131 125 119 123 128 132 135 132 122 113 113
106 52 294 211 73 50 31 133 149 175 158 141 115 135 79 87 108 137 147 151 150 147 147 150 149 146 145 144 142 141 141 141 139 137 134 134 135 139 136 128 125 125 130 139 141 141 137 128 121
160 352 314 88 79 94 133 32 124 115 125 124 110 88 74 109 134 139 148 152 152 152 152 151 153 154 152 150 149 146 141 141 137 135 135 136 137 141 140 136 133 133 135 138 141 139 136 130 125
118 44 102 60 343 14 122 117 142 143 162 117 116 72 69 129 132 144 150 156 155 155 152 153 155 154 153 151 151 146 140 140 138 137 136 134 135 136 138 140 141 146 147 147 143 141 141 138 137
78 105 43 22 344 101 132 136 175 143 136 111 112 102 110 136 142 144 150 156 157 155 156 155 157 155 155 154 154 153 148 145 145 143 141 137 134 136 137 141 144 142 145 154 153 147 152 157 158
14 51 51 44 11 102 123 158 155 132 118 107 108 110 122 154 145 142 149 155 161 157 159 158 160 160 159 160 161 160 154 153 152 149 146 143 140 143 145 149 159 158 161 168 166 161 160 168 180
100 38 107 350 325 200 166 171 161 140 123 133 132 72 132 158 144 143 151 156 162 162 162 165 165 165 166 169 165 161 160 157 155 155 155 153 155 157 154 156 164 164 165 169 171 165 166 182 192
114 95 147 134 22 288 162 167 145 142 150 142 140 143 162 162 154 146 149 159 162 165 168 168 168 170 172 170 167 167 161 160 165 155 151 149 153 155 155 159 175 168 169 173 173 177 175 178 186
109 61 4 2 27 312 276 157 157 159 143 167 160 170 163 165 159 156 158 164 166 169 168 168 168 167 167 164 163 163 157 161 154 146 142 141 123 126 136 134 159 178 192 211 205 199 198 196 194
95 122 190 69 352 333 212 157 144 133 155 144 137 150 167 168 167 164 166 169 169 170 167 167 168 165 164 163 161 160 160 161 147 143 133 142 140 142 132 137 177 191 203 207 210 207 209 209 210
250 161 99 62 48 335 333 153 190 154 177 165 148 161 174 175 176 171 172 166 163 165 167 165 165 164 159 156 152 148 145 144 134 134 135 132 133 133 145 116 79 68 237 229 216 225 220 217 219
346 304 56 72 350 256 225 336 224 178 194 174 171 173 176 179 181 179 174 167 164 164 162 159 162 159 156 157 149 142 143 148 151 150 160 153 160 174 205 272 292 295 281 250 240 236 233 238 217
267 248 209 174 187 233 230 236 253 214 191 160 169 177 181 183 187 187 183 171 168 162 158 156 154 147 147 146 151 159 149 138 153 162 167 176 189 215 255 268 299 282 281 263 253 247 246 240 238
210 198 197 209 202 214 199 219 215 208 173 158 167 178 187 189 192 191 192 184 181 172 171 165 163 163 157 160 158 151 163 166 173 162 139 181 216 266 286 282 293 283 291 278 269 256 253 234 246
228 145 158 255 178 154 140 332 142 160 170 172 167 177 185 196 196 197 195 195 190 187 181 180 171 171 173 176 177 184 189 195 191 191 202 233 298 318 298 285 290 295 290 286 279 275 264 237 247
153 59 170 214 165 145 131 231 255 164 166 175 187 175 185 196 201 204 198 198 198 193 193 188 184 186 186 188 187 181 188 181 171 197 204 254 300 308 287 286 298 304 299 290 272 261 247 216 237
27 258 252 251 196 126 127 173 226 177 175 179 189 191 192 188 201 206 206 203 203 199 198 197 197 198 197 194 193 200 201 210 211 215 224 240 250 278 302 323 317 314 302 282 256 229 206 216 228
277 282 265 231 206 140 166 238 180 193 181 184 189 195 200 203 202 206 211 207 210 205 206 205 202 199 206 198 211 221 213 215 217 234 229 241 249 279 297 308 321 321 338 310 199 180 194 208 225
243 257 254 260 181 142 193 211 185 200 188 186 192 199 204 204 207 211 212 212 208 207 208 208 201 194 197 204 214 199 189 206 224 233 238 287 271 270 296 305 318 316 3 63 134 155 172 192 225
224 244 247 288 151 165 148 219 205 196 195 189 189 199 208 212 213 214 214 208 208 211 212 208 202 199 192 195 196 193 195 202 215 235 245 257 266 271 273 305 329 324 23 88 122 141 163 177 203
281 189 253 178 136 354 60 310 194 195 209 199 201 201 208 212 216 212 209 206 208 211 213 209 207 206 202 196 197 199 204 209 218 226 224 316 248 246 268 304 338 13 65 82 95 112 168 205 233
311 227 287 132 113 207 143 262 237 168 186 196 195 204 212 213 218 213 207 205 209 214 215 210 212 210 206 199 202 206 206 212 220 245 250 265 274 244 272 316 326 235 97 83 53 283 250 252 257
249 318 45 140 124 120 218 39 264 137 180 203 198 203 212 215 216 211 206 207 209 213 215 214 214 217 211 206 207 209 206 217 217 205 149 245 251 220 234 337 330 194 222 36 24 0 313 266 249
272 295 49 69 98 36 298 135 284 178 208 198 198 205 209 214 216 217 210 209 211 215 215 215 214 221 217 211 206 209 212 215 221 220 267 226 227 213 239 353 8 207 211 263 211 227 239 216 207
73 46 350 359 13 212 307 16 246 269 245 200 186 197 206 210 213 212 208 208 210 214 215 215 215 219 219 215 211 212 218 226 226 221 214 215 235 252 255 309 6 279 261 266 275 264 254 233 228
153 149 148 224 212 271 51 232 282 299 273 212 197 199 195 204 211 211 211 211 212 217 218 216 216 217 219 217 213 211 215 222 222 223 225 224 228 217 228 268 267 315 292 277 278 254 237 241 256
181 167 180 104 14 35 276 306 315 340 28 69 173 175 182 198 209 213 216 219 218 219 222 221 218 218 220 221 217 216 218 223 225 226 227 229 231 228 252 228 290 330 307 279 276 258 247 253 266
118 159 62 16 156 226 300 284 239 322 13 100 136 179 187 199 210 212 220 223 223 223 224 225 223 221 221 220 219 221 222 228 230 230 231 234 231 236 237 223 250 275 287 280 265 253 256 258 257
10 8 55 125 127 161 191 266 217 215 235 132 153 196 194 200 207 213 219 224 228 226 225 228 226 225 225 224 223 224 227 229 233 234 234 236 235 232 240 223 233 296 304 269 257 254 244 250 248
111 39 124 118 243 280 155 266 269 212 272 293 226 143 207 211 212 213 216 221 225 230 228 229 230 229 229 228 227 228 230 233 235 236 235 236 237 230 231 226 231 304 321 266 257 255 251 258 259